Location: Burzi?i
(45.0869°N, 16.0577°E)
Time: 04:16:02
(UTC+00:00)

NOSS 3-4 (A) - Pass Details

Date: 29 October 2020
Orbit: 882 x 1330 km, 63.4° (Epoch: 28 November)

Event Time Altitude Azimuth Distance (km) Brightness Sun altitude
Rises 17:54:21 0° 322° (NW) 3,794 7.2 -22.9°
Reaches altitude 10° 17:56:55 10° 326° (NNW) 2,900 6.4 -23.3°
Maximum altitude 18:03:47 62° 47° (NE) 1,285 3.8 -24.5°
Enters shadow 18:05:39 49° 100° (E) 1,492 4.0 -24.9°
